• In Netherlands
  • List of Countries
  • For 7 days
  • Water Temperature
  • Satellite Maps
  • Weather Map
  • Weather Widgets
  • user-avatar
    Login

    Hourly Weather Amar

    Today, 25 May, Friday

    Time Temperature Precipitation Wind Pressure Humidity
    00:00 +35°C° 0 mm 2 mps 750 mmHg 23%
    01:00 +35°C° 0 mm 2 mps 750 mmHg 24%
    02:00 +35°C° 0 mm 3 mps 750 mmHg 25%
    03:00 +34°C° 0 mm 4 mps 749 mmHg 31%
    04:00 +34°C° 0 mm 4 mps 750 mmHg 33%
    05:00 +34°C° 0 mm 4 mps 750 mmHg 34%
    06:00 +33°C° 0 mm 4 mps 751 mmHg 36%
    07:00 +35°C° 0 mm 4 mps 751 mmHg 32%
    08:00 +36°C° 0 mm 4 mps 751 mmHg 28%
    09:00 +37°C° 0 mm 3 mps 751 mmHg 24%
    10:00 +38°C° 0 mm 3 mps 751 mmHg 22%
    11:00 +39°C° 0 mm 2 mps 751 mmHg 21%
    12:00 +40°C° 0 mm 2 mps 751 mmHg 19%
    13:00 +40°C° 0 mm 3 mps 751 mmHg 18%
    14:00 +42°C° 0 mm 3 mps 750 mmHg 17%
    15:00 +42°C° 0 mm 4 mps 750 mmHg 17%
    16:00 +41°C° 0 mm 4 mps 750 mmHg 20%
    17:00 +40°C° 0 mm 5 mps 750 mmHg 23%
    18:00 +39°C° 0 mm 6 mps 750 mmHg 26%
    19:00 +38°C° 0 mm 6 mps 750 mmHg 28%
    20:00 +38°C° 0 mm 6 mps 750 mmHg 30%
    21:00 +36°C° 0 mm 6 mps 751 mmHg 31%
    22:00 +35°C° 0 mm 5 mps 751 mmHg 33%
    23:00 +35°C° 0 mm 4 mps 751 mmHg 34%

    Tomorrow, 26 May, Saturday

    Time Temperature Precipitation Wind Pressure Humidity
    00:00 +34°C° 0 mm 3 mps 751 mmHg 35%
    01:00 +34°C° 0 mm 3 mps 751 mmHg 35%
    02:00 +32°C° 0 mm 2 mps 751 mmHg 35%
    03:00 +32°C° 0 mm 1 mps 751 mmHg 34%
    04:00 +32°C° 0 mm 1 mps 751 mmHg 34%
    05:00 +32°C° 0 mm 1 mps 752 mmHg 34%
    06:00 +32°C° 0 mm 2 mps 752 mmHg 34%
    07:00 +35°C° 0 mm 2 mps 752 mmHg 31%
    08:00 +36°C° 0 mm 2 mps 752 mmHg 28%
    09:00 +37°C° 0 mm 2 mps 753 mmHg 25%
    10:00 +38°C° 0 mm 2 mps 752 mmHg 23%
    11:00 +39°C° 0 mm 3 mps 752 mmHg 21%
    12:00 +40°C° 0 mm 3 mps 752 mmHg 19%
    13:00 +40°C° 0 mm 3 mps 752 mmHg 19%
    14:00 +41°C° 0 mm 4 mps 751 mmHg 18%
    15:00 +41°C° 0 mm 4 mps 751 mmHg 18%
    16:00 +40°C° 0 mm 4 mps 751 mmHg 19%
    17:00 +39°C° 0 mm 3 mps 751 mmHg 19%
    18:00 +38°C° 0 mm 3 mps 751 mmHg 20%
    19:00 +37°C° 0 mm 3 mps 751 mmHg 20%
    20:00 +37°C° 0 mm 3 mps 751 mmHg 21%
    21:00 +36°C° 0 mm 3 mps 751 mmHg 22%
    22:00 +36°C° 0 mm 2 mps 751 mmHg 23%
    23:00 +35°C° 0 mm 2 mps 751 mmHg 24%

    Day after tomorrow, 27 May, Sunday

    Time Temperature Precipitation Wind Pressure Humidity
    00:00 +34°C° 0 mm 1 mps 751 mmHg 26%
    01:00 +33°C° 0 mm 1 mps 750 mmHg 26%
    02:00 +33°C° 0 mm 1 mps 750 mmHg 27%
    03:00 +32°C° 0 mm 1 mps 750 mmHg 28%
    04:00 +32°C° 0 mm 1 mps 750 mmHg 28%
    05:00 +34°C° 0 mm 2 mps 750 mmHg 29%
    06:00 +34°C° 0 mm 2 mps 751 mmHg 29%
    07:00 +35°C° 0 mm 2 mps 751 mmHg 27%
    08:00 +36°C° 0 mm 2 mps 751 mmHg 26%
    09:00 +36°C° 0 mm 1 mps 752 mmHg 25%
    10:00 +37°C° 0 mm 1 mps 752 mmHg 23%
    11:00 +37°C° 0 mm 1 mps 752 mmHg 22%
    12:00 +39°C° 0 mm 1 mps 752 mmHg 20%
    13:00 +39°C° 0 mm 2 mps 751 mmHg 19%
    14:00 +40°C° 0 mm 2 mps 751 mmHg 18%
    15:00 +40°C° 0 mm 2 mps 751 mmHg 17%
    16:00 +39°C° 0 mm 2 mps 751 mmHg 18%
    17:00 +39°C° 0 mm 2 mps 750 mmHg 20%
    18:00 +38°C° 0 mm 3 mps 750 mmHg 21%
    19:00 +37°C° 0 mm 3 mps 751 mmHg 23%
    20:00 +37°C° 0 mm 2 mps 751 mmHg 25%
    21:00 +36°C° 0 mm 2 mps 751 mmHg 27%
    22:00 +36°C° 0 mm 2 mps 751 mmHg 27%
    23:00 +34°C° 0 mm 1 mps 751 mmHg 28%

    28 May, Monday

    Time Temperature Precipitation Wind Pressure Humidity
    00:00 +34°C° 0 mm 1 mps 750 mmHg 29%
    01:00 +34°C° 0 mm 1 mps 750 mmHg 28%
    02:00 +34°C° 0 mm 1 mps 750 mmHg 27%
    03:00 +34°C° 0 mm 2 mps 750 mmHg 27%
    04:00 +34°C° 0 mm 2 mps 750 mmHg 27%
    05:00 +34°C° 0 mm 2 mps 751 mmHg 28%
    06:00 +34°C° 0 mm 2 mps 751 mmHg 28%
    07:00 +35°C° 0 mm 2 mps 751 mmHg 26%
    08:00 +35°C° 0 mm 1 mps 752 mmHg 24%
    09:00 +36°C° 0 mm 1 mps 752 mmHg 22%
    10:00 +37°C° 0 mm 1 mps 752 mmHg 20%
    11:00 +40°C° 0 mm 1 mps 751 mmHg 19%
    12:00 +41°C° 0 mm 1 mps 751 mmHg 17%
    13:00 +41°C° 0 mm 2 mps 751 mmHg 17%
    14:00 +42°C° 0 mm 3 mps 750 mmHg 17%
    15:00 +42°C° 0 mm 3 mps 750 mmHg 17%
    16:00 +41°C° 0 mm 4 mps 750 mmHg 21%
    17:00 +40°C° 0 mm 4 mps 750 mmHg 25%
    18:00 +39°C° 0 mm 5 mps 750 mmHg 29%
    19:00 +37°C° 0 mm 4 mps 750 mmHg 32%
    20:00 +37°C° 0 mm 4 mps 750 mmHg 35%
    21:00 +36°C° 0 mm 4 mps 750 mmHg 39%
    22:00 +36°C° 0 mm 3 mps 750 mmHg 41%
    23:00 +35°C° 0 mm 3 mps 750 mmHg 43%

    29 May, Tuesday

    Time Temperature Precipitation Wind Pressure Humidity
    00:00 +35°C° 0 mm 2 mps 750 mmHg 45%
    01:00 +35°C° 0 mm 2 mps 749 mmHg 46%
    02:00 +35°C° 0 mm 2 mps 749 mmHg 46%
    03:00 +35°C° 0 mm 2 mps 749 mmHg 46%
    04:00 +35°C° 0 mm 3 mps 750 mmHg 46%
    05:00 +35°C° 0 mm 3 mps 750 mmHg 46%
    06:00 +35°C° 0 mm 3 mps 750 mmHg 46%
    07:00 +36°C° 0 mm 3 mps 750 mmHg 44%
    08:00 +37°C° 0 mm 3 mps 751 mmHg 41%
    09:00 +38°C° 0 mm 3 mps 751 mmHg 38%
    10:00 +39°C° 0 mm 2 mps 751 mmHg 35%
    11:00 +40°C° 0 mm 2 mps 750 mmHg 33%
    12:00 +41°C° 0 mm 2 mps 750 mmHg 30%
    13:00 +41°C° 0 mm 2 mps 750 mmHg 29%
    14:00 +42°C° 0 mm 3 mps 749 mmHg 27%
    15:00 +43°C° 0 mm 3 mps 749 mmHg 26%
    16:00 +42°C° 0 mm 4 mps 749 mmHg 28%
    17:00 +41°C° 0 mm 4 mps 749 mmHg 30%
    18:00 +40°C° 0 mm 5 mps 749 mmHg 32%
    19:00 +38°C° 0 mm 4 mps 749 mmHg 33%
    20:00 +38°C° 0 mm 4 mps 749 mmHg 35%
    21:00 +37°C° 0 mm 4 mps 750 mmHg 36%
    22:00 +37°C° 0 mm 3 mps 749 mmHg 38%
    23:00 +36°C° 0 mm 3 mps 749 mmHg 39%

    30 May, Wednesday

    Time Temperature Precipitation Wind Pressure Humidity
    00:00 +36°C° 0 mm 2 mps 749 mmHg 41%
    01:00 +36°C° 0 mm 2 mps 748 mmHg 41%
    02:00 +36°C° 0 mm 2 mps 748 mmHg 42%
    03:00 +35°C° 0 mm 2 mps 748 mmHg 42%
    04:00 +36°C° 0 mm 2 mps 748 mmHg 42%
    05:00 +36°C° 0 mm 2 mps 749 mmHg 41%
    06:00 +36°C° 0 mm 2 mps 749 mmHg 41%
    07:00 +37°C° 0 mm 2 mps 750 mmHg 38%
    08:00 +38°C° 0 mm 2 mps 750 mmHg 35%
    09:00 +39°C° 0 mm 3 mps 751 mmHg 33%
    10:00 +40°C° 0 mm 2 mps 750 mmHg 31%
    11:00 +41°C° 0 mm 2 mps 750 mmHg 29%
    12:00 +42°C° 0 mm 2 mps 750 mmHg 27%
    13:00 +42°C° 0 mm 2 mps 750 mmHg 27%
    14:00 +44°C° 0 mm 3 mps 749 mmHg 26%
    15:00 +44°C° 0 mm 4 mps 749 mmHg 25%
    16:00 +43°C° 0 mm 4 mps 749 mmHg 27%
    17:00 +42°C° 0 mm 5 mps 749 mmHg 30%
    18:00 +41°C° 0 mm 6 mps 749 mmHg 32%
    19:00 +40°C° 0 mm 5 mps 750 mmHg 34%
    20:00 +39°C° 0 mm 5 mps 750 mmHg 35%
    21:00 +39°C° 0 mm 5 mps 750 mmHg 37%
    22:00 +37°C° 0 mm 4 mps 750 mmHg 37%
    23:00 +37°C° 0 mm 4 mps 750 mmHg 37%
    Show more